GM7AFE Weather Reports


time (UTC)temp
F
wind
direction
speed
knots
gust
knots
rain 1hr
in
rain 24hr
in
rain mn
in
humidity
%
barometer
mb
20260508224550 44 248 13.0 20.0 0.00 0.01 0.01 74 1015.3
20260508223527 44 248 13.9 19.1 0.00 0.01 0.01 78 1015.3
20260508222524 44 244 12.2 21.7 0.00 0.01 0.01 78 1015.3
20260508221521 43 225 11.3 17.4 0.00 0.01 0.01 78 1015.4
20260508220518 43 234 12.2 19.1 0.00 0.01 0.01 78 1015.3
20260508215615 44 248 11.3 18.2 0.00 0.01 0.01 79 1015.1
20260508214652 44 248 16.5 23.5 0.00 0.01 0.01 75 1015.0
20260508213608 44 237 12.2 18.2 0.00 0.01 0.01 76 1015.1
20260508212605 44 244 13.0 19.1 0.00 0.01 0.01 77 1014.8
20260508211622 44 238 12.2 17.4 0.00 0.01 0.01 75 1014.7
20260508210559 44 244 15.6 21.7 0.00 0.01 0.01 74 1014.6
20260508205616 45 239 13.9 20.0 0.00 0.01 0.01 74 1014.5
20260508204553 44 228 13.0 19.1 0.00 0.01 0.01 75 1014.5
20260508203549 44 248 10.4 17.4 0.00 0.01 0.01 76 1014.4
20260508202546 45 248 13.0 21.7 0.00 0.01 0.01 74 1014.1
20260508201543 45 240 15.6 23.5 0.00 0.01 0.01 73 1013.8
20260508200540 45 229 15.6 23.5 0.00 0.01 0.01 75 1013.7
20260508195537 45 225 12.2 17.4 0.00 0.01 0.01 75 1013.6
20260508194534 45 225 15.6 21.7 0.00 0.01 0.01 73 1013.4
20260508193531 45 237 16.5 23.5 0.00 0.01 0.01 72 1013.2
20260508192527 45 240 16.5 23.5 0.00 0.01 0.01 71 1013.0
20260508191524 46 240 16.5 23.5 0.00 0.01 0.01 69 1013.0
20260508190521 46 245 15.6 23.5 0.00 0.01 0.01 73 1012.7
20260508185518 46 221 14.8 20.9 0.00 0.01 0.01 76 1012.6
20260508184615 46 222 13.9 19.1 0.00 0.01 0.01 76 1012.6
20260508183632 46 237 20.0 29.5 0.00 0.01 0.01 74 1012.4
20260508182608 47 225 17.4 23.5 0.00 0.01 0.01 74 1012.2
20260508181605 47 229 15.6 21.7 0.00 0.01 0.01 74 1012.3
20260508180602 47 225 15.6 20.0 0.00 0.01 0.01 74 1012.1
20260508175559 47 221 17.4 26.1 0.00 0.01 0.01 74 1011.9
20260508174636 48 225 18.2 23.5 0.00 0.01 0.01 73 1011.8
20260508173553 48 233 16.5 21.7 0.00 0.01 0.01 70 1011.6
20260508172610 48 218 15.6 21.7 0.00 0.01 0.01 72 1011.5
20260508171547 50 244 17.4 25.2 0.00 0.01 0.01 68 1011.2
20260508170543 49 233 16.5 23.5 0.00 0.01 0.01 70 1011.2
20260508165540 49 218 20.9 27.8 0.00 0.01 0.01 70 1011.0
20260508164557 49 237 20.9 29.5 0.00 0.01 0.01 70 1011.0
20260508163534 50 237 17.4 23.5 0.00 0.01 0.01 68 1011.0
20260508162531 49 229 20.9 27.8 0.00 0.01 0.01 69 1010.9
20260508161527 49 229 20.9 27.8 0.00 0.01 0.01 69 1010.7
20260508160524 50 228 19.1 26.1 0.00 0.01 0.01 70 1010.6
20260508155521 50 218 19.1 26.1 0.00 0.01 0.01 71 1010.6
20260508154518 51 232 19.1 26.9 0.00 0.01 0.01 68 1010.5
20260508153615 51 214 21.7 29.5 0.00 0.01 0.01 68 1010.4
20260508152612 50 218 22.6 31.3 0.00 0.01 0.01 72 1010.3
20260508151608 50 210 20.9 29.5 0.00 0.01 0.01 71 1010.4
20260508150606 50 218 19.1 25.2 0.00 0.01 0.01 73 1010.3
20260508145642 50 218 18.2 23.5 0.00 0.01 0.01 72 1010.2
20260508144559 52 197 19.1 29.5 0.00 0.01 0.01 68 1010.1
20260508143556 51 222 17.4 23.5 0.00 0.01 0.01 69 1010.2
20260508142553 51 206 20.0 26.1 0.00 0.01 0.01 70 1010.1
20260508141550 51 195 20.0 27.8 0.00 0.01 0.01 70 1010.2
20260508140607 50 225 18.2 26.1 0.00 0.01 0.01 76 1010.2
20260508135544 50 218 21.7 29.5 0.00 0.01 0.01 75 1009.9
20260508134541 51 195 23.5 33.0 0.00 0.01 0.01 73 1009.8
20260508133537 52 195 21.7 29.5 0.00 0.01 0.01 72 1009.6
20260508132534 52 187 20.9 29.5 0.00 0.01 0.01 70 1009.8
20260508131531 51 199 22.6 31.3 0.00 0.01 0.01 70 1009.7
20260508130528 52 191 22.6 31.3 0.00 0.01 0.01 68 1009.5
20260508125524 52 198 20.9 29.5 0.00 0.01 0.01 68 1009.5
20260508124541 51 221 20.0 26.1 0.00 0.01 0.01 71 1009.5
20260508123518 51 210 22.6 29.5 0.00 0.01 0.01 69 1009.6
20260508122635 51 203 21.7 26.9 0.00 0.01 0.01 69 1009.6
20260508121612 52 195 21.7 27.8 0.00 0.01 0.01 68 1009.5
20260508120609 52 192 19.1 26.1 0.00 0.01 0.01 69 1009.5
20260508115606 51 191 21.7 26.9 0.00 0.01 0.01 69 1009.5
20260508114602 51 198 20.0 26.9 0.00 0.01 0.01 71 1009.4
20260508113559 51 194 19.1 25.2 0.00 0.01 0.01 69 1009.4
20260508112556 51 187 21.7 29.5 0.00 0.01 0.01 67 1009.0
20260508111553 52 184 21.7 27.8 0.00 0.01 0.01 67 1009.1
20260508110550 52 202 19.1 26.1 0.00 0.01 0.01 67 1009.0
20260508105547 52 198 20.0 25.2 0.00 0.01 0.01 67 1009.0
20260508104544 52 198 20.0 27.8 0.00 0.01 0.01 67 1009.0
20260508103540 52 195 19.1 23.5 0.00 0.01 0.01 66 1009.0
20260508102537 51 204 19.1 25.2 0.00 0.01 0.01 67 1008.9
20260508101535 51 206 18.2 25.2 0.00 0.01 0.01 69 1009.0
20260508100531 52 207 16.5 21.7 0.00 0.01 0.01 68 1009.0
20260508095528 51 213 19.1 23.5 0.00 0.01 0.01 69 1008.8
20260508094525 50 199 18.2 25.2 0.00 0.01 0.01 71 1008.9
20260508093521 50 218 19.1 23.5 0.00 0.01 0.01 70 1008.8
20260508092519 51 195 19.1 26.9 0.00 0.01 0.01 70 1008.7
20260508091515 51 203 18.2 23.5 0.00 0.01 0.01 72 1008.5
20260508090612 51 196 15.6 19.1 0.00 0.01 0.01 75 1008.4
20260508085629 50 195 17.4 23.5 0.00 0.01 0.01 73 1008.3
20260508084606 50 201 16.5 21.7 0.00 0.01 0.01 75 1008.3
20260508083623 50 194 17.4 20.9 0.00 0.01 0.01 76 1008.2
20260508082600 49 195 18.2 23.5 0.00 0.01 0.01 78 1007.9
20260508081557 50 207 16.5 20.9 0.00 0.01 0.01 81 1007.9
20260508080553 49 202 14.8 20.0 0.00 0.01 0.01 79 1007.8
20260508075550 49 199 16.5 20.9 0.00 0.01 0.01 81 1007.7
20260508074547 49 184 15.6 20.9 0.00 0.01 0.01 82 1007.6
20260508073544 49 199 17.4 23.5 0.00 0.01 0.01 83 1007.5
20260508072541 49 199 17.4 23.5 0.00 0.01 0.01 82 1007.3
20260508071538 49 203 16.5 20.9 0.00 0.01 0.01 85 1007.1
20260508070535 49 187 16.5 23.5 0.00 0.01 0.01 85 1007.2
20260508065532 49 195 15.6 20.9 0.00 0.01 0.01 86 1007.1
20260508064528 49 173 16.5 20.9 0.01 0.01 0.01 89 1007.0
20260508063525 48 168 12.2 15.6 0.01 0.01 0.01 90 1007.0
20260508062522 48 172 13.0 15.6 0.01 0.01 0.01 91 1006.9
20260508061538 48 162 12.2 14.8 0.01 0.01 0.01 91 1006.7
20260508060515 48 172 12.2 15.6 0.01 0.01 0.01 91 1006.8
20260508055612 47 173 12.2 17.4 0.01 0.01 0.01 91 1006.8
20260508054609 47 176 13.0 15.6 0.00 0.00 0.00 91 1006.7
20260508053607 47 173 13.9 19.1 0.00 0.00 0.00 91 1006.5
20260508052603 47 173 12.2 15.6 0.00 0.00 0.00 91 1006.5
20260508051600 47 178 13.0 18.2 0.00 0.00 0.00 91 1006.5
20260508050556 47 172 13.0 17.4 0.00 0.00 0.00 91 1006.3
20260508045553 47 160 13.0 18.2 0.00 0.00 0.00 91 1006.4
20260508044550 47 180 13.9 17.4 0.00 0.00 0.00 91 1006.3
20260508043547 47 169 13.0 15.6 0.00 0.00 0.00 92 1006.4
20260508042544 47 180 12.2 18.2 0.00 0.00 0.00 92 1006.5
20260508041601 47 184 13.0 15.6 0.00 0.00 0.00 91 1006.4
20260508040538 47 173 13.0 18.2 0.00 0.00 0.00 91 1006.4
20260508035535 47 166 14.8 19.1 0.00 0.00 0.00 91 1006.3
20260508034532 47 169 13.9 20.0 0.00 0.00 0.00 92 1006.4
20260508033528 47 161 13.0 18.2 0.00 0.00 0.00 92 1006.4
20260508032525 47 175 13.0 18.2 0.00 0.00 0.00 92 1006.4
20260508031542 47 183 13.9 20.0 0.00 0.00 0.00 92 1006.5
20260508030519 47 156 13.9 18.2 0.00 0.00 0.00 92 1006.4
20260508025515 47 149 14.8 20.0 0.00 0.00 0.00 92 1006.6
20260508024613 47 151 14.8 20.0 0.00 0.00 0.00 91 1006.6
20260508023629 47 157 14.8 20.0 0.00 0.00 0.00 91 1006.6
20260508022606 47 156 14.8 20.9 0.00 0.00 0.00 91 1006.5
20260508021623 47 154 15.6 20.9 0.00 0.00 0.00 91 1006.7
20260508020600 47 158 17.4 25.2 0.00 0.00 0.00 91 1006.8
20260508015617 47 158 16.5 23.5 0.00 0.00 0.00 91 1006.7
20260508014554 47 146 17.4 23.5 0.00 0.00 0.00 91 1006.8
20260508013551 47 158 16.5 26.9 0.00 0.00 0.00 91 1006.9
20260508012548 47 161 18.2 26.1 0.00 0.00 0.00 90 1006.9
20260508011544 47 158 18.2 25.2 0.00 0.00 0.00 90 1006.9
20260508010622 47 154 17.4 23.5 0.00 0.00 0.00 90 1007.0
20260508005538 47 143 16.5 23.5 0.00 0.00 0.00 90 1007.0
20260508004535 47 176 19.1 26.9 0.00 0.00 0.00 90 1006.9
20260508003632 47 173 19.1 25.2 0.00 0.00 0.00 89 1007.1
20260508002529 47 154 17.4 26.9 0.00 0.00 0.00 89 1007.3
20260508001526 47 153 19.1 29.5 0.00 0.00 0.00 90 1007.1
20260508000522 47 135 16.5 19.1 0.00 0.00 0.00 89 1007.2
20260507235521 47 154 19.1 25.2 0.00 0.00 0.00 89 1007.3
20260507234516 47 172 16.5 23.5 0.00 0.00 0.00 89 1007.4
20260507233613 47 147 17.4 23.5 0.00 0.00 0.00 88 1007.5
20260507232612 47 154 16.5 23.5 0.00 0.00 0.00 88 1007.6
20260507231626 47 160 16.5 26.1 0.00 0.00 0.00 88 1007.7
20260507230603 47 157 16.5 23.5 0.00 0.00 0.00 88 1007.7
20260507225600 47 177 15.6 23.5 0.00 0.00 0.00 88 1007.8